• In Portugal
  • List of Countries
  • For 7 days
  • Water Temperature
  • Satellite Maps
  • Weather Map
  • Weather Widgets
  • user-avatar
    Login

    Hourly Weather Kalgoorlie

    Today, 25 May, Friday

    Time Temperature Precipitation Wind Pressure Humidity
    00:00 +21°C° 0 mm 10 mps 725 mmHg 24%
    01:00 +21°C° 0 mm 11 mps 725 mmHg 24%
    02:00 +21°C° 0 mm 11 mps 724 mmHg 24%
    03:00 +21°C° 0 mm 11 mps 723 mmHg 24%
    04:00 +21°C° 0 mm 12 mps 723 mmHg 24%
    05:00 +22°C° 0 mm 12 mps 723 mmHg 24%
    06:00 +22°C° 0 mm 12 mps 723 mmHg 25%
    07:00 +22°C° 0 mm 12 mps 723 mmHg 25%
    08:00 +22°C° 0 mm 12 mps 723 mmHg 23%
    09:00 +23°C° 0 mm 13 mps 723 mmHg 28%
    10:00 +24°C° 0 mm 14 mps 722 mmHg 33%
    11:00 +26°C° 0 mm 15 mps 722 mmHg 37%
    12:00 +24°C° 0.2 mm 14 mps 722 mmHg 44%
    13:00 +22°C° 0.2 mm 13 mps 722 mmHg 51%
    14:00 +21°C° 0.2 mm 12 mps 721 mmHg 59%
    15:00 +21°C° 0.1 mm 11 mps 722 mmHg 54%
    16:00 +21°C° 0.1 mm 10 mps 722 mmHg 50%
    17:00 +19°C° 0.1 mm 9 mps 722 mmHg 46%
    18:00 +18°C° 0 mm 8 mps 722 mmHg 49%
    19:00 +17°C° 0 mm 8 mps 723 mmHg 51%
    20:00 +17°C° 0 mm 7 mps 723 mmHg 53%
    21:00 +16°C° 0 mm 7 mps 723 mmHg 54%
    22:00 +16°C° 0 mm 7 mps 723 mmHg 55%
    23:00 +15°C° 0 mm 7 mps 723 mmHg 56%

    Tomorrow, 26 May, Saturday

    Time Temperature Precipitation Wind Pressure Humidity
    00:00 +15°C° 0 mm 7 mps 723 mmHg 57%
    01:00 +14°C° 0 mm 7 mps 723 mmHg 59%
    02:00 +13°C° 0 mm 8 mps 723 mmHg 60%
    03:00 +13°C° 0 mm 8 mps 723 mmHg 62%
    04:00 +12°C° 0 mm 8 mps 723 mmHg 65%
    05:00 +12°C° 0 mm 8 mps 724 mmHg 67%
    06:00 +12°C° 0 mm 9 mps 724 mmHg 68%
    07:00 +12°C° 0 mm 10 mps 724 mmHg 68%
    08:00 +12°C° 0 mm 11 mps 725 mmHg 69%
    09:00 +13°C° 0 mm 11 mps 725 mmHg 64%
    10:00 +14°C° 0 mm 11 mps 725 mmHg 60%
    11:00 +16°C° 0 mm 11 mps 725 mmHg 55%
    12:00 +16°C° 0 mm 10 mps 725 mmHg 54%
    13:00 +17°C° 0 mm 10 mps 725 mmHg 52%
    14:00 +17°C° 0 mm 10 mps 725 mmHg 51%
    15:00 +17°C° 0 mm 9 mps 725 mmHg 53%
    16:00 +16°C° 0 mm 9 mps 726 mmHg 56%
    17:00 +16°C° 0 mm 8 mps 726 mmHg 59%
    18:00 +15°C° 0 mm 8 mps 726 mmHg 64%
    19:00 +14°C° 0 mm 7 mps 727 mmHg 70%
    20:00 +14°C° 0 mm 6 mps 727 mmHg 75%
    21:00 +13°C° 0 mm 6 mps 728 mmHg 77%
    22:00 +13°C° 0 mm 6 mps 728 mmHg 80%
    23:00 +11°C° 0 mm 6 mps 729 mmHg 83%

    Day after tomorrow, 27 May, Sunday

    Time Temperature Precipitation Wind Pressure Humidity
    00:00 +12°C° 0 mm 5 mps 729 mmHg 85%
    01:00 +10°C° 0 mm 5 mps 729 mmHg 87%
    02:00 +10°C° 0 mm 5 mps 729 mmHg 89%
    03:00 +10°C° 0 mm 5 mps 729 mmHg 89%
    04:00 +9°C° 0 mm 5 mps 729 mmHg 90%
    05:00 +9°C° 0 mm 5 mps 729 mmHg 91%
    06:00 +9°C° 0 mm 5 mps 730 mmHg 87%
    07:00 +10°C° 0 mm 5 mps 730 mmHg 83%
    08:00 +10°C° 0 mm 5 mps 731 mmHg 80%
    09:00 +13°C° 0 mm 6 mps 731 mmHg 72%
    10:00 +16°C° 0 mm 7 mps 731 mmHg 64%
    11:00 +18°C° 0 mm 7 mps 731 mmHg 56%
    12:00 +18°C° 0 mm 7 mps 730 mmHg 55%
    13:00 +18°C° 0 mm 8 mps 730 mmHg 53%
    14:00 +18°C° 0 mm 8 mps 730 mmHg 51%
    15:00 +18°C° 0 mm 7 mps 730 mmHg 53%
    16:00 +19°C° 0 mm 6 mps 730 mmHg 54%
    17:00 +17°C° 0 mm 5 mps 730 mmHg 56%
    18:00 +16°C° 0 mm 5 mps 731 mmHg 60%
    19:00 +15°C° 0 mm 4 mps 731 mmHg 64%
    20:00 +14°C° 0 mm 4 mps 731 mmHg 68%
    21:00 +14°C° 0 mm 4 mps 731 mmHg 71%
    22:00 +14°C° 0 mm 4 mps 732 mmHg 74%
    23:00 +13°C° 0 mm 4 mps 732 mmHg 77%

    28 May, Monday

    Time Temperature Precipitation Wind Pressure Humidity
    00:00 +13°C° 0 mm 4 mps 732 mmHg 80%
    01:00 +12°C° 0 mm 4 mps 732 mmHg 84%
    02:00 +12°C° 0 mm 4 mps 732 mmHg 87%
    03:00 +12°C° 0 mm 4 mps 732 mmHg 89%
    04:00 +12°C° 0 mm 4 mps 732 mmHg 90%
    05:00 +11°C° 0 mm 4 mps 732 mmHg 92%
    06:00 +12°C° 0 mm 4 mps 733 mmHg 88%
    07:00 +12°C° 0 mm 4 mps 734 mmHg 84%
    08:00 +12°C° 0 mm 4 mps 734 mmHg 80%
    09:00 +14°C° 0 mm 5 mps 734 mmHg 72%
    10:00 +15°C° 0 mm 5 mps 734 mmHg 64%
    11:00 +16°C° 0 mm 5 mps 735 mmHg 56%
    12:00 +17°C° 0 mm 5 mps 734 mmHg 50%
    13:00 +19°C° 0 mm 5 mps 734 mmHg 43%
    14:00 +20°C° 0 mm 5 mps 733 mmHg 37%
    15:00 +19°C° 0 mm 4 mps 734 mmHg 37%
    16:00 +18°C° 0 mm 4 mps 734 mmHg 38%
    17:00 +17°C° 0 mm 3 mps 734 mmHg 38%
    18:00 +17°C° 0 mm 3 mps 735 mmHg 40%
    19:00 +16°C° 0 mm 3 mps 736 mmHg 42%
    20:00 +14°C° 0 mm 3 mps 736 mmHg 44%
    21:00 +13°C° 0 mm 3 mps 736 mmHg 47%
    22:00 +13°C° 0 mm 3 mps 737 mmHg 49%
    23:00 +12°C° 0 mm 3 mps 737 mmHg 51%

    29 May, Tuesday

    Time Temperature Precipitation Wind Pressure Humidity
    00:00 +12°C° 0 mm 3 mps 737 mmHg 53%
    01:00 +11°C° 0 mm 3 mps 737 mmHg 56%
    02:00 +10°C° 0 mm 4 mps 737 mmHg 58%
    03:00 +10°C° 0 mm 4 mps 737 mmHg 62%
    04:00 +9°C° 0 mm 3 mps 737 mmHg 65%
    05:00 +9°C° 0 mm 3 mps 737 mmHg 68%
    06:00 +10°C° 0 mm 4 mps 737 mmHg 68%
    07:00 +10°C° 0 mm 4 mps 738 mmHg 68%
    08:00 +10°C° 0 mm 5 mps 738 mmHg 67%
    09:00 +13°C° 0 mm 5 mps 738 mmHg 59%
    10:00 +15°C° 0 mm 5 mps 738 mmHg 51%
    11:00 +16°C° 0 mm 6 mps 738 mmHg 43%
    12:00 +17°C° 0 mm 5 mps 737 mmHg 40%
    13:00 +19°C° 0 mm 4 mps 737 mmHg 38%
    14:00 +20°C° 0 mm 4 mps 736 mmHg 35%
    15:00 +19°C° 0 mm 3 mps 736 mmHg 37%
    16:00 +18°C° 0 mm 3 mps 736 mmHg 38%
    17:00 +17°C° 0 mm 2 mps 736 mmHg 39%
    18:00 +17°C° 0 mm 3 mps 737 mmHg 41%
    19:00 +16°C° 0 mm 3 mps 737 mmHg 42%
    20:00 +14°C° 0 mm 3 mps 737 mmHg 44%
    21:00 +14°C° 0 mm 4 mps 737 mmHg 45%
    22:00 +13°C° 0 mm 4 mps 737 mmHg 46%
    23:00 +13°C° 0 mm 4 mps 737 mmHg 48%

    30 May, Wednesday

    Time Temperature Precipitation Wind Pressure Humidity
    00:00 +12°C° 0 mm 4 mps 737 mmHg 48%
    01:00 +12°C° 0 mm 5 mps 737 mmHg 49%
    02:00 +10°C° 0 mm 5 mps 737 mmHg 50%
    03:00 +10°C° 0 mm 5 mps 737 mmHg 50%
    04:00 +11°C° 0 mm 4 mps 737 mmHg 50%
    05:00 +10°C° 0 mm 4 mps 737 mmHg 51%
    06:00 +10°C° 0 mm 5 mps 737 mmHg 49%
    07:00 +10°C° 0 mm 5 mps 737 mmHg 47%
    08:00 +12°C° 0 mm 5 mps 737 mmHg 45%
    09:00 +14°C° 0 mm 6 mps 737 mmHg 40%
    10:00 +16°C° 0 mm 6 mps 736 mmHg 36%
    11:00 +18°C° 0 mm 7 mps 736 mmHg 31%
    12:00 +20°C° 0 mm 7 mps 735 mmHg 30%
    13:00 +21°C° 0 mm 6 mps 734 mmHg 29%
    14:00 +22°C° 0 mm 6 mps 734 mmHg 28%
    15:00 +21°C° 0 mm 6 mps 734 mmHg 32%
    16:00 +20°C° 0 mm 5 mps 733 mmHg 35%
    17:00 +19°C° 0 mm 4 mps 733 mmHg 39%
    18:00 +19°C° 0 mm 4 mps 733 mmHg 42%
    19:00 +18°C° 0 mm 4 mps 734 mmHg 45%
    20:00 +17°C° 0 mm 4 mps 734 mmHg 48%
    21:00 +16°C° 0 mm 5 mps 733 mmHg 49%
    22:00 +16°C° 0 mm 5 mps 733 mmHg 50%
    23:00 +16°C° 0 mm 6 mps 733 mmHg 51%
    Show more